Change the Weather History Date:

Monday, October 29, 2012

  Actual Average Record
Temperature  
Mean Temperature 26 °F -  
Max Temperature 33 °F 39 °F 50 °F (1993)
Min Temperature 19 °F 31 °F 16 °F (1984)
Degree Days  
Heating Degree Days 40    
Moisture  
Dew Point 12 °F    
Average Humidity 62    
Maximum Humidity 82    
Minimum Humidity 40    
Precipitation  
Precipitation 0.00 in - - ()
Sea Level Pressure  
Sea Level Pressure 30.02 in    
Wind  
Wind Speed 6 mph (WNW)    
Max Wind Speed 12 mph    
Max Gust Speed -    
Visibility 10 miles    
Events      
Averages and records for this station are not official NWS values.
T = Trace of Precipitation, MM = Missing Value Source: NWS Daily Summary

Daily Weather History Graph

Daily Weather History Graph

Search for Another Location

Airport or City:

Trip Planner

Search our weather history database for the weather conditions in past years. The results will help you decide how hot, cold, wet, or windy it might be!

Date:

Astronomy

Oct. 29, 2012 Rise Set
Actual Time 8:15 AM AKDT 5:15 PM AKDT
Civil Twilight 7:31 AM AKDT 5:58 PM AKDT
Nautical Twilight 6:43 AM AKDT 6:46 PM AKDT
Astronomical Twilight 5:56 AM AKDT 7:33 PM AKDT
Moon 4:58 PM AKDT (10/29) 8:22 AM AKDT (10/29)
Length of Visible Light 10h 26m
Length of Day
8h 59m
Full, 100% of the Moon is Illuminated
Oct 29
Full
Nov 6
Last Quarter
Nov 13
New
Nov 20
First Quarter
Nov 28
Full

Hourly Weather History & Observations

Time (AKDT) Temp. Windchill Dew Point Humidity Pressure Visibility Wind Dir Wind Speed Gust Speed Precip Events Conditions
12:54 AM 19.9 °F 10.1 °F 12.9 °F 74% 30.10 in 10.0 mi WNW 8.1 mph - N/A   Clear
1:54 AM 19.9 °F 12.1 °F 12.9 °F 74% 30.10 in 10.0 mi NW 5.8 mph - N/A   Clear
2:54 AM 19.9 °F 13.4 °F 12.9 °F 74% 30.09 in 10.0 mi NW 4.6 mph - N/A   Clear
3:54 AM 28.0 °F 20.0 °F 10.0 °F 47% 30.09 in 10.0 mi NW 8.1 mph - N/A   Clear
4:54 AM 21.0 °F 13.4 °F 12.0 °F 68% 30.08 in 10.0 mi WNW 5.8 mph - N/A   Clear
5:54 AM 19.9 °F - 12.0 °F 71% 30.07 in 10.0 mi Calm Calm - N/A   Clear
6:54 AM 23.0 °F 18.4 °F 10.9 °F 60% 30.08 in 10.0 mi Variable 3.5 mph - N/A   Clear
7:54 AM 26.1 °F 17.6 °F 9.0 °F 49% 30.07 in 10.0 mi NW 8.1 mph - N/A   Clear
8:54 AM 26.1 °F 16.2 °F 9.0 °F 49% 30.07 in 10.0 mi NW 10.4 mph - N/A   Clear
9:54 AM 28.0 °F 18.6 °F 9.0 °F 45% 30.06 in 10.0 mi NW 10.4 mph - N/A   Clear
10:54 AM 28.9 °F 19.2 °F 9.0 °F 43% 30.05 in 10.0 mi WNW 11.5 mph - N/A   Clear
12:54 PM 30.0 °F 21.1 °F 10.9 °F 45% 30.02 in 10.0 mi WNW 10.4 mph - N/A   Clear
1:54 PM 32.0 °F 24.2 °F 10.0 °F 40% 30.01 in 10.0 mi WNW 9.2 mph - N/A   Clear
2:54 PM 32.0 °F 25.6 °F 10.0 °F 40% 29.99 in 10.0 mi West 6.9 mph - N/A   Clear
3:54 PM 27.0 °F 20.5 °F 12.9 °F 56% 29.98 in 10.0 mi West 5.8 mph - N/A   Clear
4:54 PM 26.1 °F - 15.1 °F 63% 29.96 in 10.0 mi Calm Calm - N/A   Clear
5:54 PM 21.9 °F - 14.0 °F 72% 29.96 in 10.0 mi Calm Calm - N/A   Clear
6:54 PM 21.0 °F - 14.0 °F 74% 29.95 in 10.0 mi Calm Calm - N/A   Clear
7:54 PM 21.9 °F - 14.0 °F 72% 29.95 in 10.0 mi Calm Calm - N/A   Clear
8:54 PM 23.0 °F - 17.1 °F 78% 29.95 in 10.0 mi Calm Calm - N/A   Overcast
9:54 PM 21.9 °F 17.2 °F 15.1 °F 75% 29.96 in 10.0 mi WNW 3.5 mph - N/A   Partly Cloudy
10:54 PM 21.9 °F - 16.0 °F 78% 29.96 in 10.0 mi Calm Calm - N/A   Clear
11:54 PM 21.9 °F 17.2 °F 17.1 °F 82% 29.97 in 10.0 mi WNW 3.5 mph - N/A   Clear